Location: Kitt Peak
(31.9514°N, 111.6156°W)
Time: 22:56:45
(UTC-07:00)

Hubble Space Telescope - Visible Passes

Search period start: 27 January 2022 00:00
Search period end: 06 February 2022 00:00
Orbit: 534 x 538 km, 28.5° (Epoch: 27 January)

Date Brightness Start Highest point End Pass type
(mag) Time Alt. Az. Time Alt. Az. Time Alt. Az.
27 Jan 3.3 20:02:29 10° SSW 20:03:23 14° SSW 20:03:23 14° SSW visible
28 Jan 2.7 19:50:47 10° SSW 19:52:55 20° S 19:52:55 20° S visible
29 Jan 2.2 19:39:13 10° SW 19:42:25 26° SSE 19:42:25 26° SSE visible
30 Jan 1.9 19:27:42 10° SW 19:31:20 30° SSE 19:31:54 29° SSE visible
31 Jan 1.7 19:16:16 10° SW 19:20:00 35° SSE 19:21:21 27° SE visible
01 Feb 1.6 19:04:51 10° WSW 19:08:41 39° S 19:10:47 22° ESE visible
01 Feb 3.9 20:45:37 10° WSW 20:46:05 13° WSW 20:46:05 13° WSW visible
02 Feb 1.5 18:53:29 10° WSW 18:57:23 44° S 19:00:13 17° ESE visible
02 Feb 3.4 20:34:20 10° W 20:35:30 18° WSW 20:35:30 18° WSW visible
03 Feb 1.4 18:42:08 10° WSW 18:46:05 47° S 18:49:39 12° E visible
03 Feb 2.9 20:23:04 10° W 20:24:57 24° WSW 20:24:57 24° WSW visible
04 Feb 1.4 18:30:48 10° WSW 18:34:46 50° S 18:38:45 10° E visible
04 Feb 2.3 20:11:48 10° W 20:14:24 32° SW 20:14:24 32° SW visible
05 Feb 1.9 20:00:33 10° W 20:03:53 38° SSW 20:03:53 38° SSW visible
